Weather in Chilchi

Russia / Amur Oblast     55°59′38″N   122°25′27″E
temp.,
°C
wind,
m/s
gust,
m/s
humid.,
%
clouds,
%
prec.,
mm/h
press.,
hPa
HPBL,
m
24 may, tue
tue2400:00+5nnw22724 0.0 101417
03:00+3nnw227678 0.0 101513
06:00+5nw126698 0.0 101663
09:00+13nnw2640100 0.0 1015844
12:00+13nnw4852100 0.0 10161482
15:00+15n584998 0.1 10161757
18:00+14nnw6955100 0.4 10161684
21:00+9wsw1188100 0.4 101710
25 may, wed
wed2500:00+6nw1192100 0.0 101810
03:00+6wnw119237 0.0 101810
06:00+7nnw008299 0.0 101836
09:00+16wnw254151 0.0 1015886
12:00+20wnw5930100 0.0 10123094
15:00+21w473093 0.0 10102761
18:00+15nne245971 0.3 1010711
21:00+10nne1187100 1.1 101218
26 may, thu
thu2600:00+8nne239181 0.2 101386
03:00+6nne2294100 0.2 101217
06:00+7ese118895 0.0 101143
09:00+12sse2365100 0.0 1007552
12:00+17s354375 0.0 10031570
15:00+20wsw4733100 0.0 9982751
18:00+14sse1263100 0.4 996146
21:00+11se2178100 0.5 99611
27 may, fri
fri2700:00+8nne118899 0.0 99512
03:00+8nnw3593100 0.0 996181
06:00+6nnw4779100 0.0 997646
09:00+5nnw4776100 0.0 999729
12:00+3nnw41093100 1.1 1000753
15:00+4nnw51283100 1.7 1000956
18:00+3nnw61388100 0.9 10001021
21:00+2n51296100 4.3 10011026
28 may, sat
sat2800:00+2nnw41098100 2.9 999655
03:00+1nnw2599100 5.5 999308
06:00+1nnw3698100 2.9 999265
09:00+1nnw2699100 6.6 998289
12:00+1nnw25100100 9.4 999200
15:00+2nw2499100 10.1 1000221
18:00+3nnw2498100 0.1 1001285
21:00+2nnw25100100 0.9 1002307